When you browse on this site, cookies collect data to enhance your experience and personalize the content and advertising you see.
Visit our Privacy Policy to learn more. By continuing to use the site, you agree to this use of cookies and data.
  • In Hungary
  • List of Countries
  • For 7 days
  • Water Temperature
  • Weather Map
  • News
  • Weather Widgets
  • user-avatar
    Login

    Hourly Weather Ischgl

    Today, 5 June, Friday

    Time Temperature Precipitation Wind Pressure Humidity
    00:00 +1°C° 1.5 mm 1 mps 562 mmHg 98%
    01:00 +1°C° 1.5 mm 1 mps 562 mmHg 97%
    02:00 +1°C° 0.2 mm 1 mps 562 mmHg 97%
    03:00 +1°C° 0.2 mm 1 mps 562 mmHg 97%
    04:00 +1°C° 0.2 mm 1 mps 562 mmHg 97%
    05:00 +1°C° 0.3 mm 1 mps 562 mmHg 97%
    06:00 +1°C° 0.3 mm 1 mps 562 mmHg 96%
    07:00 +1°C° 0.3 mm 1 mps 563 mmHg 96%
    08:00 +2°C° 0.2 mm 1 mps 563 mmHg 94%
    09:00 +2°C° 0.2 mm 1 mps 563 mmHg 93%
    10:00 +3°C° 0.2 mm 1 mps 564 mmHg 91%
    11:00 +4°C° 0.1 mm 1 mps 564 mmHg 86%
    12:00 +5°C° 0.1 mm 1 mps 565 mmHg 81%
    13:00 +6°C° 0.1 mm 1 mps 565 mmHg 76%
    14:00 +6°C° 0.1 mm 1 mps 566 mmHg 74%
    15:00 +7°C° 0.1 mm 1 mps 566 mmHg 72%
    16:00 +6°C° 0.1 mm 2 mps 566 mmHg 70%
    17:00 +7°C° 0.1 mm 1 mps 566 mmHg 75%
    18:00 +6°C° 0.1 mm 1 mps 566 mmHg 80%
    19:00 +5°C° 0.1 mm 1 mps 566 mmHg 84%
    20:00 +4°C° 0 mm 1 mps 566 mmHg 88%
    21:00 +3°C° 0 mm 1 mps 566 mmHg 91%
    22:00 +2°C° 0 mm 1 mps 566 mmHg 95%
    23:00 +2°C° 0.1 mm 1 mps 566 mmHg 95%

    Tomorrow, 6 June, Saturday

    Time Temperature Precipitation Wind Pressure Humidity
    00:00 +2°C° 0.1 mm 1 mps 566 mmHg 95%
    01:00 +2°C° 0.1 mm 1 mps 566 mmHg 95%
    02:00 +1°C° 0 mm 2 mps 566 mmHg 94%
    03:00 +1°C° 0 mm 2 mps 566 mmHg 94%
    04:00 -1°C° 0 mm 2 mps 566 mmHg 93%
    05:00 +2°C° 0 mm 2 mps 567 mmHg 90%
    06:00 +3°C° 0 mm 2 mps 568 mmHg 86%
    07:00 +4°C° 0 mm 2 mps 568 mmHg 83%
    08:00 +5°C° 0 mm 2 mps 569 mmHg 79%
    09:00 +6°C° 0 mm 2 mps 570 mmHg 75%
    10:00 +7°C° 0 mm 2 mps 570 mmHg 70%
    11:00 +8°C° 0.4 mm 2 mps 570 mmHg 70%
    12:00 +9°C° 0.4 mm 2 mps 571 mmHg 70%
    13:00 +9°C° 0.4 mm 2 mps 571 mmHg 70%
    14:00 +9°C° 1.1 mm 2 mps 570 mmHg 74%
    15:00 +8°C° 1.1 mm 2 mps 570 mmHg 78%
    16:00 +8°C° 1.1 mm 2 mps 570 mmHg 82%
    17:00 +7°C° 1 mm 2 mps 570 mmHg 86%
    18:00 +7°C° 1 mm 1 mps 570 mmHg 89%
    19:00 +7°C° 1 mm 1 mps 569 mmHg 93%
    20:00 +6°C° 0.5 mm 1 mps 569 mmHg 94%
    21:00 +5°C° 0.5 mm 1 mps 569 mmHg 96%
    22:00 +5°C° 0.5 mm 1 mps 569 mmHg 97%
    23:00 +4°C° 0.1 mm 1 mps 569 mmHg 97%

    Day after tomorrow, 7 June, Sunday

    Time Temperature Precipitation Wind Pressure Humidity
    00:00 +4°C° 0.1 mm 1 mps 568 mmHg 97%
    01:00 +4°C° 0.1 mm 1 mps 568 mmHg 97%
    02:00 +4°C° 0.2 mm 1 mps 568 mmHg 96%
    03:00 +4°C° 0.2 mm 1 mps 568 mmHg 96%
    04:00 +4°C° 0.2 mm 1 mps 568 mmHg 96%
    05:00 +4°C° 0.9 mm 1 mps 568 mmHg 96%
    06:00 +4°C° 0.9 mm 1 mps 568 mmHg 96%
    07:00 +4°C° 0.9 mm 1 mps 569 mmHg 96%
    08:00 +4°C° 0.9 mm 1 mps 569 mmHg 95%
    09:00 +4°C° 0.9 mm 1 mps 569 mmHg 94%
    10:00 +4°C° 0.9 mm 2 mps 570 mmHg 92%
    11:00 +3°C° 0.8 mm 2 mps 569 mmHg 93%
    12:00 +3°C° 0.8 mm 2 mps 569 mmHg 94%
    13:00 +2°C° 0.8 mm 2 mps 569 mmHg 95%
    14:00 +2°C° 1.7 mm 2 mps 569 mmHg 96%
    15:00 +2°C° 1.7 mm 1 mps 569 mmHg 97%
    16:00 +2°C° 1.7 mm 1 mps 568 mmHg 97%
    17:00 +2°C° 0.6 mm 1 mps 568 mmHg 97%
    18:00 +2°C° 0.6 mm 1 mps 569 mmHg 97%
    19:00 +2°C° 0.6 mm 1 mps 569 mmHg 97%
    20:00 +2°C° 0.9 mm 1 mps 569 mmHg 98%
    21:00 +1°C° 0.9 mm 1 mps 569 mmHg 98%
    22:00 +1°C° 0.9 mm 1 mps 569 mmHg 98%
    23:00 +1°C° 1.3 mm 1 mps 569 mmHg 98%

    8 June, Monday

    Time Temperature Precipitation Wind Pressure Humidity
    00:00 +1°C° 1.3 mm 1 mps 569 mmHg 98%
    01:00 +1°C° 1.3 mm 1 mps 568 mmHg 98%
    02:00 +1°C° 0.3 mm 1 mps 568 mmHg 98%
    03:00 +1°C° 0.3 mm 1 mps 568 mmHg 98%
    04:00 0°C° 0.3 mm 0 mps 568 mmHg 98%
    05:00 0°C° 0.2 mm 0 mps 568 mmHg 98%
    06:00 +2°C° 0.2 mm 1 mps 569 mmHg 97%
    07:00 +2°C° 0.2 mm 1 mps 569 mmHg 97%
    08:00 +2°C° 1 mm 1 mps 569 mmHg 97%
    09:00 +2°C° 1 mm 1 mps 569 mmHg 97%
    10:00 +2°C° 1 mm 1 mps 569 mmHg 98%
    11:00 +2°C° 1.2 mm 1 mps 569 mmHg 98%
    12:00 +2°C° 1.2 mm 1 mps 569 mmHg 98%
    13:00 +2°C° 1.2 mm 1 mps 569 mmHg 98%
    14:00 +2°C° 1.2 mm 1 mps 569 mmHg 98%
    15:00 +2°C° 1.2 mm 1 mps 569 mmHg 98%
    16:00 +1°C° 1.2 mm 1 mps 568 mmHg 98%
    17:00 +2°C° 0.4 mm 1 mps 569 mmHg 97%
    18:00 +2°C° 0.4 mm 1 mps 569 mmHg 97%
    19:00 +2°C° 0.4 mm 1 mps 569 mmHg 97%
    20:00 0°C° 0 mm 0 mps 569 mmHg 97%
    21:00 0°C° 0 mm 0 mps 569 mmHg 97%
    22:00 -1°C° 0 mm 0 mps 569 mmHg 97%
    23:00 -1°C° 0 mm 0 mps 569 mmHg 97%

    9 June, Tuesday

    Time Temperature Precipitation Wind Pressure Humidity
    00:00 0°C° 0 mm 1 mps 569 mmHg 97%
    01:00 0°C° 0 mm 1 mps 569 mmHg 97%
    02:00 0°C° 0.1 mm 1 mps 569 mmHg 97%
    03:00 0°C° 0.1 mm 1 mps 569 mmHg 97%
    04:00 +1°C° 0.1 mm 1 mps 569 mmHg 97%
    05:00 +1°C° 0.1 mm 1 mps 570 mmHg 96%
    06:00 +1°C° 0.1 mm 1 mps 570 mmHg 96%
    07:00 +2°C° 0.1 mm 1 mps 570 mmHg 95%
    08:00 +2°C° 0.2 mm 1 mps 571 mmHg 95%
    09:00 +3°C° 0.2 mm 1 mps 571 mmHg 94%
    10:00 +3°C° 0.2 mm 1 mps 571 mmHg 93%
    11:00 +4°C° 0.1 mm 1 mps 571 mmHg 92%
    12:00 +4°C° 0.1 mm 1 mps 572 mmHg 92%
    13:00 +5°C° 0.1 mm 1 mps 572 mmHg 91%
    14:00 +5°C° 0.2 mm 1 mps 572 mmHg 88%
    15:00 +5°C° 0.2 mm 2 mps 572 mmHg 86%
    16:00 +5°C° 0.2 mm 2 mps 572 mmHg 83%
    17:00 +6°C° 0.3 mm 1 mps 572 mmHg 85%
    18:00 +6°C° 0.3 mm 1 mps 572 mmHg 88%
    19:00 +5°C° 0.3 mm 1 mps 572 mmHg 90%
    20:00 +4°C° 0.1 mm 1 mps 572 mmHg 92%
    21:00 +3°C° 0.1 mm 1 mps 572 mmHg 94%
    22:00 +2°C° 0.1 mm 1 mps 572 mmHg 96%
    23:00 +2°C° 0.1 mm 1 mps 572 mmHg 96%

    10 June, Wednesday

    Time Temperature Precipitation Wind Pressure Humidity
    00:00 +1°C° 0.1 mm 0 mps 572 mmHg 96%
    01:00 +1°C° 0.1 mm 0 mps 572 mmHg 96%
    02:00 +1°C° 0 mm 0 mps 572 mmHg 96%
    03:00 +1°C° 0 mm 0 mps 572 mmHg 96%
    04:00 +1°C° 0 mm 0 mps 572 mmHg 96%
    05:00 +2°C° 0 mm 0 mps 572 mmHg 95%
    06:00 +2°C° 0 mm 0 mps 573 mmHg 94%
    07:00 +3°C° 0 mm 0 mps 573 mmHg 92%
    08:00 +4°C° 0.1 mm 1 mps 574 mmHg 89%
    09:00 +5°C° 0.1 mm 1 mps 574 mmHg 86%
    10:00 +6°C° 0.1 mm 1 mps 575 mmHg 82%
    11:00 +7°C° 0.6 mm 1 mps 575 mmHg 81%
    12:00 +7°C° 0.6 mm 1 mps 575 mmHg 81%
    13:00 +8°C° 0.6 mm 1 mps 575 mmHg 80%
    14:00 +8°C° 1.1 mm 1 mps 575 mmHg 81%
    15:00 +8°C° 1.1 mm 1 mps 575 mmHg 83%
    16:00 +8°C° 1.1 mm 1 mps 575 mmHg 85%
    17:00 +7°C° 0.9 mm 1 mps 575 mmHg 88%
    18:00 +7°C° 0.9 mm 1 mps 574 mmHg 91%
    19:00 +6°C° 0.9 mm 1 mps 574 mmHg 94%
    20:00 +5°C° 1 mm 1 mps 574 mmHg 94%
    21:00 +5°C° 1 mm 1 mps 574 mmHg 95%
    22:00 +4°C° 1 mm 1 mps 574 mmHg 96%
    23:00 +4°C° 0.4 mm 1 mps 574 mmHg 96%
    Show more